TDRS 6

Last updated on Tue Sep 22 2026 00:03:06 GMT+0000 (Coordinated Universal Time)

1 22314U 93003B 26264.27904554 -.00000291 00000+0 00000+0 0 9994 2 22314 14.1861 356.3335 0009680 202.9199 215.6020 1.00272661123375
UTC large
Height (km)
Speed (km/s)
/
Latitude / Longitude
Inclination (degrees)
Orbital Period (minutes)
Azimuth
Elevation
Range (km)
Doppler Factor

Next 0 passes for location: London (51.5072 / 0.1276)

No passes found over London.
TDRS 6